ヴィルト第4彗星

116P/Wild 4 (2009)

English version
Home page
Updated on September 3, 2011

---------------------------------------------------------------------

・ プロフィール

・ 写真集

・ 軌道要素

The following orbital elements are taken from MPC 62583:

Epoch 2009 July 28.0 TT = JDT 2455040.5
T 2009 July 18.8611 TT                                  MPC
q   2.174944             (2000.0)            P               Q
n   0.1519858      Peri.  173.5896      -0.9675286      +0.2517477
a   3.477502       Node    21.0333      -0.2346130      -0.8611625
e   0.374567       Incl.    3.6129      -0.0940488      -0.4416132
P   6.48
From 1102 observations 1994-2008. +0.00 +0.0000.

・ 星図

・ 光度変化

        m1 = 5.0 + 5 logΔ + 20.0 log r(t + 25)

---------------------------------------------------------------------

軌道要素はMPCのEphemerides and Orbital Elementsに掲載されたものです。
星図は StellaNavigator Ver.2.0 for Windows (アストロアーツ 編著 / アスキー出版局刊) で作成したものです。
光度グラフはComet for Windowsで作成したものです。

---------------------------------------------------------------------

Copyright(C) Seiichi Yoshida (comet@aerith.net). All rights reserved.